Terminal Aerodrome Forecast
Issued by NWS Twin Cities, MN

Home | Current Version | Previous Version | Text Only | Print | Product List | Glossary Off
Versions: 1 2 3 4 5 6 7 8 9 10 11 12 13 14 15 16 17 18 19 20 21 22 23 24 25 26 27 28 29

000
FTUS43 KMPX 032105 AAC
TAFMSP
TAF AMD
KMSP 032105Z 0321/0424 31018G30KT P6SM SCT025
     FM040100 29017G24KT P6SM SKC
     FM040800 29012KT P6SM SKC
     FM042000 29012G20KT P6SM BKN025=

USA.gov is the U.S. government's official web portal to all federal, state and local government web resources and services.